Current weather by "City, St" or "zip code"  
 

Current Conditions: Redstone Airfield, AL

Fog/Mist


55.0 F

Last Updated on Oct 24 2020, 8:58 pm CDT
Humidity: 100%
Wind Speed: N 5.8 mph
Barometer 29.97 in
Dewpoint: 55.4 F
Visibility: 1.88 mi
Precip: --
Heat Index: NA
Wind Chill: 54 F
Current conditions at:

Redstone Airfield, AL (KHUA)

Lat: 34.6786 Lon: 86.6847

Local Radar Image active severe weather and emergency alerts image image weather storm and storm spotter reports image weather observation monitoring service image
Local
Radar
Active
Alerts
Storm Reports Obs
Monitoring

Sign-up For Email & Text Message Weather Alert Notification Services



Advertise Here

Observation History for Redstone Airfield, AL


Time Wind
(mph)
Vis
(mi)
Weather Precip (in) Temperature (F) Relative
Humidity
Wind
Chill
(F)
Heat
Index
(F)
Pressure
Air Dwpt altimeter
(in)
sea level
(mb)
Rmks
8:58 pm CDT N 5.8 1.88 Fog/Mist -- 55.0 55.4 100% 54 NA 29.97 1014.8
7:58 pm CDT N 5.8 9.00 Overcast -- 56.0 55.8 98% 55 NA 29.97 1014.8
5:58 pm CDT N 6.9 10.00 Overcast -- 57.0 56.3 96% 56 NA 29.96 1014.5
4:58 pm CDT N 10.4 8.00 Overcast -- 58.0 56.5 94% 56 NA 29.95 1014.0
3:58 pm CDT N 9.2 8.00 Overcast -- 58.0 57.0 96% 56 NA 29.93 1013.3
2:58 pm CDT NE 6.9 8.00 Overcast -- 58.0 56.8 96% 57 NA 29.93 1013.3
1:58 pm CDT NE 9.2 8.00 Overcast -- 57.0 56.3 97% 55 NA 29.96 1014.4
12:58 pm CDT N 4.6 9.00 Overcast Trace 57.0 56.3 98% 57 NA 30.00 1015.7
11:58 am CDT NE 8.1 6.00 Light Rain Fog/Mist Trace 56.0 55.4 98% 54 NA 30.03 1016.7
10:58 am CDT NE 9.2 6.00 Light Rain Fog/Mist 00.02 55.0 54.5 97% 52 NA 30.03 1016.7
9:58 am CDT N 9.2 5.00 Light Rain Fog/Mist 00.02 56.0 55.4 98% 54 NA 30.05 1017.4
8:58 am CDT E 8.1 7.00 Light Rain -- 57.0 55.4 94% 55 NA 30.04 1017.1
7:58 am CDT NE 12.7 9.00 Overcast Trace 58.0 57.2 98% 55 NA 30.03 1016.7
6:58 am CDT NE 9.2 10.00 Overcast -- 60.0 58.8 97% 59 NA 30.02 1016.3
5:58 am CDT NE 11.5 10.00 Overcast 00.05 62.0 61.2 98% 61 NA 30.01 1015.9
4:58 am CDT NE 6.9 5.00 Rain Fog/Mist 00.23 66.0 64.8 97% NA NA 30.01 1015.9
3:58 am CDT N 4.6 6.00 Fog/Mist Trace 67.0 65.3 95% NA NA 30.03 1016.5
2:58 am CDT NE 6.9 9.00 Overcast -- 66.0 64.4 94% NA NA 30.02 1016.2
1:58 am CDT NE 4.6 10.00 Overcast -- 66.0 64.4 93% NA NA 30.02 1016.1
12:58 am CDT N 0.0 10.00 Mostly Cloudy Trace 66.0 63.5 92% NA NA 30.03 1016.5
11:58 pm CDT W 6.9 9.00 Light Rain Thunderstorm in Vicinity -- 68.0 64.4 88% NA NA 30.03 1016.4
10:58 pm CDT N 0.0 10.00 Partly Cloudy -- 68.0 67.1 97% NA NA 30.02 1016.2
9:58 pm CDT N 0.0 10.00 Fair -- 68.0 67.1 98% NA NA 30.01 1015.8

Regional Weather Observation


Huntsville, Madison County Executive Airport, AL (KMDQ)

Fog/Mist
56.0 F

Huntsville, Huntsville International / Jones Field, AL (KHSV)

Fog/Mist
56.0 F

Redstone Airfield, AL (KHUA)

Fog/Mist
55.0 F

Folsom Field Airport, AL (K3A1)

Partly Cloudy
82.0 F

Muscle Shoals, North West Alabama Regional Airport, AL (KMSL)

Overcast
57.0 F

Scottsboro Municipal Airport, AL (K4A6)

Overcast
64.0 F